Weather History for Marfa, TX

Change the Weather History Date:

Wednesday, March 7, 2012

  Actual Average Record
Temperature  
Mean Temperature 55 °F -  
Max Temperature 80 °F 63 °F 82 °F (2006)
Min Temperature 30 °F 31 °F 14 °F (2008)
Degree Days  
Heating Degree Days 10    
Growing Degree Days 5 (Base 50)    
Moisture  
Dew Point 21 °F    
Average Humidity 35    
Maximum Humidity 75    
Minimum Humidity 10    
Precipitation  
Precipitation 0.00 in - - ()
Sea Level Pressure  
Sea Level Pressure 29.90 in    
Wind  
Wind Speed 10 mph (SSW)    
Max Wind Speed 30 mph    
Max Gust Speed 37 mph    
Visibility 10 miles    
Events      
Averages and records for this station are not official NWS values.
T = Trace of Precipitation, MM = Missing Value Source: NWS Daily Summary

Daily Weather History Graph

Daily Weather History Graph

Search for Another Location

Airport:

Trip Planner

Search our weather history database for the weather conditions in past years. The results will help you decide how hot, cold, wet, or windy it might be!

Date:

Astronomy

Mar. 07, 2012 Rise Set
Actual Time 7:14 AM CST 6:59 PM CST
Civil Twilight 6:50 AM CST 7:23 PM CST
Nautical Twilight 6:22 AM CST 7:51 PM CST
Astronomical Twilight 5:55 AM CST 8:19 PM CST
Moon 6:36 PM CST (3/7) 6:25 AM CST (3/7)
Length of Visible Light 12h 32m
Length of Day
11h 44m
Waxing Gibbous, 99% of the Moon is Illuminated
Mar 7
Waxing Gibbous
Mar 8
Full
Mar 14
Last Quarter
Mar 22
New
Mar 30
First Quarter

Hourly Weather History & Observations

Time (CST) Temp. Windchill Dew Point Humidity Pressure Visibility Wind Dir Wind Speed Gust Speed Precip Events Conditions
12:15 AM 39.2 °F 37.0 °F 23.0 °F 52% 29.93 in 10.0 mi NW 3.5 mph - N/A   Clear
12:55 AM 39.2 °F - 26.6 °F 61% 29.93 in 10.0 mi Calm Calm - N/A   Clear
1:15 AM 39.2 °F - 28.4 °F 65% 29.93 in 10.0 mi Calm Calm - N/A   Clear
1:35 AM 37.4 °F 32.1 °F 24.8 °F 60% 29.93 in 10.0 mi NNW 6.9 mph - N/A   Clear
1:55 AM 37.4 °F - 23.0 °F 56% 29.93 in 10.0 mi Calm Calm - N/A   Clear
2:15 AM 37.4 °F 32.8 °F 26.6 °F 65% 29.93 in 10.0 mi NNE 5.8 mph - N/A   Clear
2:35 AM 37.4 °F 30.8 °F 26.6 °F 65% 29.93 in 10.0 mi NNE 9.2 mph - N/A   Clear
2:55 AM 37.4 °F 32.8 °F 26.6 °F 65% 29.92 in 10.0 mi NE 5.8 mph - N/A   Clear
3:15 AM 35.6 °F 29.9 °F 24.8 °F 65% 29.92 in 10.0 mi NNE 6.9 mph - N/A   Clear
3:35 AM 35.6 °F 31.7 °F 28.4 °F 75% 29.91 in 10.0 mi NE 4.6 mph - N/A   Clear
3:55 AM 37.4 °F 32.8 °F 28.4 °F 70% 29.90 in 10.0 mi NE 5.8 mph - N/A   Clear
4:15 AM 35.6 °F 29.9 °F 26.6 °F 70% 29.90 in 10.0 mi NE 6.9 mph - N/A   Clear
4:35 AM 35.6 °F 32.8 °F 26.6 °F 70% 29.91 in 10.0 mi NNE 3.5 mph - N/A   Clear
4:55 AM 33.8 °F 27.0 °F 24.8 °F 70% 29.91 in 10.0 mi North 8.1 mph - N/A   Clear
5:15 AM 33.8 °F 30.8 °F 26.6 °F 75% 29.91 in 10.0 mi NE 3.5 mph - N/A   Clear
5:35 AM 33.8 °F 27.7 °F 26.6 °F 75% 29.92 in 10.0 mi NNE 6.9 mph - N/A   Clear
5:55 AM 35.6 °F 29.9 °F 26.6 °F 70% 29.92 in 10.0 mi NE 6.9 mph - N/A   Clear
6:35 AM 35.6 °F 31.7 °F 26.6 °F 70% 29.93 in 10.0 mi NE 4.6 mph - N/A   Clear
6:55 AM 35.6 °F 32.8 °F 26.6 °F 70% 29.93 in 10.0 mi NNW 3.5 mph - N/A   Clear
7:15 AM 30.2 °F 26.7 °F 23.0 °F 75% 29.93 in 10.0 mi ENE 3.5 mph - N/A   Clear
7:35 AM 30.2 °F 23.4 °F 21.2 °F 69% 29.93 in 10.0 mi WNW 6.9 mph - N/A   Clear
7:55 AM 35.6 °F 31.7 °F 24.8 °F 65% 29.94 in 10.0 mi NNW 4.6 mph - N/A   Clear
8:15 AM 41.0 °F 38.0 °F 28.4 °F 61% 29.93 in 10.0 mi NNW 4.6 mph - N/A   Clear
8:35 AM 44.6 °F - 28.4 °F 53% 29.94 in 10.0 mi Calm Calm - N/A   Clear
8:55 AM 50.0 °F - 30.2 °F 47% 29.95 in 10.0 mi SE 3.5 mph - N/A   Clear
9:15 AM 53.6 °F - 30.2 °F 41% 29.96 in 10.0 mi South 6.9 mph - N/A   Clear
9:35 AM 57.2 °F - 28.4 °F 33% 29.96 in 10.0 mi South 5.8 mph - N/A   Clear
9:55 AM 62.6 °F - 24.8 °F 24% 29.96 in 10.0 mi South 15.0 mph - N/A   Clear
10:15 AM 66.2 °F - 24.8 °F 21% 29.96 in 10.0 mi South 17.3 mph 21.9 mph N/A   Clear
10:35 AM 69.8 °F - 21.2 °F 16% 29.95 in 10.0 mi South 23.0 mph 28.8 mph N/A   Clear
10:55 AM 71.6 °F - 19.4 °F 14% 29.95 in 10.0 mi SSW 27.6 mph 33.4 mph N/A   Clear
11:15 AM 73.4 °F - 17.6 °F 12% 29.95 in 10.0 mi South 26.5 mph 32.2 mph N/A   Clear
11:35 AM 73.4 °F - 17.6 °F 12% 29.95 in 10.0 mi South 29.9 mph - N/A   Clear
11:55 AM 75.2 °F - 17.6 °F 11% 29.94 in 10.0 mi SSW 26.5 mph 32.2 mph N/A   Clear
12:15 PM 75.2 °F - 17.6 °F 11% 29.93 in 10.0 mi South 28.8 mph 33.4 mph N/A   Clear
12:35 PM 75.2 °F - 17.6 °F 11% 29.93 in 10.0 mi South 27.6 mph 32.2 mph N/A   Clear
12:55 PM 77.0 °F - 17.6 °F 11% 29.92 in 10.0 mi South 23.0 mph 33.4 mph N/A   Clear
1:15 PM 77.0 °F - 17.6 °F 11% 29.91 in 10.0 mi South 17.3 mph 34.5 mph N/A   Clear
1:35 PM 78.8 °F - 17.6 °F 10% 29.90 in 10.0 mi South 25.3 mph 36.8 mph N/A   Clear
1:55 PM 78.8 °F - 17.6 °F 10% 29.89 in 10.0 mi SSW 29.9 mph 36.8 mph N/A   Clear
2:15 PM 78.8 °F - 17.6 °F 10% 29.88 in 10.0 mi SW 20.7 mph 29.9 mph N/A   Clear
2:35 PM 78.8 °F - 19.4 °F 11% 29.87 in 10.0 mi SSW 26.5 mph 33.4 mph N/A   Clear
2:55 PM 78.8 °F - 19.4 °F 11% 29.86 in 10.0 mi SSW 23.0 mph 34.5 mph N/A   Clear
3:15 PM 80.6 °F - 19.4 °F 10% 29.85 in 10.0 mi SSW 24.2 mph 34.5 mph N/A   Clear
3:35 PM 80.6 °F - 19.4 °F 10% 29.85 in 10.0 mi SSW 21.9 mph 27.6 mph N/A   Clear
3:55 PM 80.6 °F - 19.4 °F 10% 29.84 in 10.0 mi SSW 18.4 mph 27.6 mph N/A   Clear
4:15 PM 78.8 °F - 19.4 °F 11% 29.83 in 10.0 mi SSW 19.6 mph 31.1 mph N/A   Clear
4:35 PM 78.8 °F - 19.4 °F 11% 29.83 in 10.0 mi SSW 25.3 mph 32.2 mph N/A   Clear
4:55 PM 78.8 °F - 19.4 °F 11% 29.82 in 10.0 mi South 24.2 mph 35.7 mph N/A   Clear
5:15 PM 78.8 °F - 19.4 °F 11% 29.82 in 10.0 mi SSW 26.5 mph 34.5 mph N/A   Clear
5:35 PM 78.8 °F - 17.6 °F 10% 29.81 in 10.0 mi South 23.0 mph 32.2 mph N/A   Clear
5:55 PM 78.8 °F - 17.6 °F 10% 29.81 in 10.0 mi SSW 25.3 mph 31.1 mph N/A   Clear
6:15 PM 75.2 °F - 17.6 °F 11% 29.81 in 10.0 mi South 17.3 mph - N/A   Clear
6:35 PM 75.2 °F - 15.8 °F 11% 29.81 in 10.0 mi South 15.0 mph 19.6 mph N/A   Clear
6:55 PM 73.4 °F - 15.8 °F 11% 29.82 in 10.0 mi South 12.7 mph - N/A   Clear
7:15 PM 69.8 °F - 12.2 °F 11% 29.82 in 10.0 mi South 9.2 mph - N/A   Clear
7:35 PM 66.2 °F - 10.4 °F 11% 29.83 in 10.0 mi SW 11.5 mph - N/A   Partly Cloudy
7:55 PM 66.2 °F - 8.6 °F 11% 29.84 in 10.0 mi SW 9.2 mph - N/A   Mostly Cloudy
8:15 PM 64.4 °F - 8.6 °F 11% 29.86 in 10.0 mi West 9.2 mph - N/A   Overcast
8:35 PM 62.6 °F - 6.8 °F 11% 29.86 in 10.0 mi West 11.5 mph - N/A   Overcast
8:55 PM 60.8 °F - 6.8 °F 12% 29.87 in 10.0 mi West 11.5 mph - N/A   Overcast
9:15 PM 60.8 °F - 5.0 °F 11% 29.88 in 10.0 mi West 11.5 mph - N/A   Overcast
9:35 PM 59.0 °F - 3.2 °F 11% 29.89 in 10.0 mi West 10.4 mph - N/A   Overcast
9:55 PM 55.4 °F - 1.4 °F 11% 29.90 in 10.0 mi West 9.2 mph - N/A   Overcast
10:15 PM 55.4 °F - 1.4 °F 11% 29.91 in 10.0 mi West 5.8 mph - N/A   Mostly Cloudy
10:35 PM 55.4 °F - 1.4 °F 11% 29.92 in 10.0 mi WSW 8.1 mph - N/A   Partly Cloudy
10:55 PM 53.6 °F - -0.4 °F 11% 29.92 in 10.0 mi WSW 9.2 mph - N/A   Clear
11:35 PM 50.0 °F - -0.4 °F 13% 29.92 in 10.0 mi North 5.8 mph - N/A   Clear
11:55 PM 46.4 °F 44.3 °F -2.2 °F 13% 29.93 in 10.0 mi North 4.6 mph - N/A   Clear